User: anonymous   Login
Location: Kalberh�ni
(46.4610°N, 7.2453°E)
Time: 10:12:14
(UTC+00:00)
Language:

SL-4 R/B - Orbit

View from above orbital plane
View from above orbital plane
View from above satellite
View from above satellite

Ground track
Ground track

The orbit data is extracted from the following two-line orbital elements,

1 39679U 14021B   21259.96739165  .00000974  00000-0  64099-4 0  9999
2 39679  51.6148 147.7950 0170187  88.5809 273.4649 15.07142208408171
Epoch (UTC): 16 September 2021 23:13:02
Eccentricity: 0.0170187
inclination: 51.6148°
perigee height: 427 km
apogee height: 663 km
right ascension of ascending node: 147.7950°
argument of perigee: 88.5809°
revolutions per day: 15.07142208
mean anomaly at epoch: 273.4649°
orbit number at epoch: 40817

The dashed part of the orbit path shows where the satellite is in the earth's shadow,  

DLR